CAPE
0 0 0 0 0 0 0 0 0 0 0 0 0 0 0 0 0 0 0 0 0 0 0 0 0 0 544 3754 4119 3484 3770 4453 3704 3318 3105 3042 2441 2884 2586 3155 3560 3644 2786 2799
0 0 0 0 0 0 0 0 0 0 0 10 20 0 0 3 0 0 0 0 0 0 0 0 0 0 34 2068 3605 3935 3945 4384 4187 3859 3562 3335 3502 3224 3209 3179 3651 3434 3105 3125
15 0 0 0 0 0 0 0 0 0 0 0 12 22 36 8 13 0 0 0 0 0 0 0 0 0 5 490 2540 2354 4046 4338 4201 3938 3914 3773 3400 4290 3564 3922 3496 3265 2942 2880
113 30 21 13 35 46 2 0 0 2 24 21 5 34 92 21 3 7 0 0 0 0 0 0 0 0 0 5 302 989 2819 4017 4437 4440 3343 3683 2988 3420 4122 3927 4151 3602 3144 2759
59 148 185 105 25 81 140 83 3 6 25 55 16 84 23 70 7 0 0 0 0 0 0 0 0 0 2 8 12 71 1175 2809 4001 3531 4115 3766 3230 2995 3181 3003 3386 3332 3246 3045
108 137 182 146 85 116 85 126 109 31 47 88 63 158 56 48 45 12 0 0 0 0 0 0 0 0 1 0 12 152 670 1989 3381 3399 3905 3253 2820 2473 2309 2775 2980 2953 2739 2918
110 140 76 91 52 40 79 16 52 118 153 126 27 73 52 42 36 7 2 1 0 0 0 0 0 0 0 0 7 165 674 1212 2799 3439 3721 2971 2600 3670 3152 3160 2671 2410 2506 2705
5 76 210 147 163 107 188 176 326 120 35 18 37 57 35 0 0 0 7 25 2 0 0 0 0 0 0 0 0 82 693 1242 2755 3206 3085 2731 3181 2956 3082 3247 2970 2126 2043 2331
286 92 185 52 47 171 117 4 9 178 140 151 92 84 2 8 0 0 0 0 17 3 0 0 0 0 0 0 67 221 802 1941 3245 3337 2862 3256 2807 3057 2738 2438 1866 1557 1603 1307
139 34 0 5 15 61 168 218 138 31 171 149 84 152 16 8 36 11 2 5 18 8 2 6 0 0 0 0 400 1159 2608 2617 2310 2439 2662 2603 2434 1923 1242 986 839 797 773 672
14 21 25 10 55 45 115 110 7 52 218 144 126 208 404 234 210 87 34 2 34 49 1179 1147 2 5 12 44 2243 2122 2021 2049 1572 1495 815 832 780 638 588 577 614 642 733 694
2 58 37 12 0 4 28 169 194 120 110 181 133 0 114 409 400 113 189 509 680 1807 1958 2031 1398 1729 1949 2077 2027 1747 1287 975 785 466 467 454 423 322 130 30 5 0 0 0
43 36 40 143 119 7 35 11 17 23 50 109 180 125 341 175 953 1051 1357 1465 1663 1788 1818 1787 1897 2147 1867 1401 1067 998 973 641 297 163 80 64 37 0 0 0 0 0 0 0
28 16 17 18 10 12 7 1 0 43 116 154 2 65 237 51 573 509 1224 1312 1307 1509 1747 1828 1804 1977 1720 1468 969 707 372 199 70 31 14 0 0 0 0 0 0 0 0 0
37 1 5 7 3 0 1 0 0 1 95 212 47 6 34 350 569 413 836 1266 1340 1416 1579 1567 1589 1360 656 726 624 279 113 35 2 3 1 0 0 0 0 0 0 0 0 0
44 28 33 8 0 1 0 0 0 0 28 148 0 0 66 401 369 550 915 1104 1115 1080 1054 888 598 520 520 270 89 0 0 1 0 0 0 0 0 0 0 0 0 0 0 0
51 49 29 5 0 1 6 0 0 3 216 187 269 60 70 336 319 582 593 623 503 38 150 200 99 31 0 0 0 0 2 0 0 0 0 0 0 0 0 0 0 0 0 0
43 40 59 8 3 14 8 1 29 217 377 166 160 29 229 286 263 396 395 107 2 66 20 0 0 0 0 0 0 1 0 0 0 0 0 0 0 0 0 0 0 0 0 0
24 35 29 4 22 1 318 37 237 358 313 324 334 0 391 242 27 1 18 0 0 0 0 0 0 0 0 0 0 0 0 0 0 0 0 0 0 0 0 0 0 0 2 10
5 14 12 27 35 56 17 1 0 461 496 428 164 0 285 76 5 10 5 7 7 0 4 0 0 0 0 0 0 0 0 0 0 0 0 0 0 0 0 0 3 13 6 0
8 5 13 10 47 13 5 6 31 278 353 435 643 569 337 170 8 11 3 3 5 7 10 8 0 0 0 0 0 0 0 0 0 0 0 0 0 0 2 8 4 7 6 9
7 64 26 16 20 14 0 0 34 2 140 289 597 522 524 7 4 3 2 2 2 5 6 3 0 0 0 0 0 0 0 0 0 0 0 0 0 0 2 7 5 8 12 6
13 12 6 10 15 7 17 7 9 80 270 42 144 236 2 5 8 9 10 3 1 2 2 4 3 0 0 0 0 0 0 0 0 0 0 0 0 1 5 7 8 3 4 0
11 4 16 12 8 6 9 4 8 2 4 1 1 1 4 1 0 1 1 3 3 5 5 2 0 0 0 0 0 0 0 0 0 0 0 0 0 4 6 1 0 0 0 2
17 9 10 15 6 1 14 11 7 4 3 1 2 1 2 1 1 0 1 0 0 4 6 0 0 0 0 0 0 0 0 0 0 0 2 2 4 3 0 0 0 0 0 0
19 6 17 6 4 12 26 22 10 5 4 3 4 7 4 1 1 0 0 0 0 0 6 2 0 0 0 0 0 0 0 0 1 0 3 1 2 2 0 0 0 0 0 0
CIN
-0 -0 -0 -0 -0 -0 -0 -0 -0 -0 -0 -0 -0 -0 -0 -0 -0 -0 -0 -0 -0 -0 -0 -0 -0 -0 -123 -22 -32 -47 -29 -23 -25 -9 -16 -20 -60 -25 -29 -15 -17 -34 -46 -38
-0 -0 -0 -0 -0 -0 -0 -0 -0 -0 -0 -4 -0 -0 -0 -0 -0 -0 -0 -0 -0 -0 -0 -0 -0 -0 -230 -54 -49 -45 -53 -40 -18 -9 -21 -16 -13 -8 -9 -17 -50 -70 -82 -62
-7 -0 -0 -0 -0 -0 -0 -0 -0 -0 -0 -0 -1 -1 -0 -1 -0 -0 -0 -0 -0 -0 -0 -0 -0 -0 -41 -139 -72 -92 -39 -20 -17 -13 -11 -16 -17 -16 -10 -25 -62 -74 -65 -42
-1 -1 -2 -5 -1 -0 -0 -0 -0 -0 -0 -1 -13 -1 -0 -1 -3 -1 -0 -0 -0 -0 -0 -0 -0 -0 -0 -146 -271 -152 -33 -14 -19 -17 -26 -13 -36 -11 -19 -28 -17 -22 -19 -23
-26 -35 -0 -2 -47 -54 -1 -1 -3 -0 -0 -0 -0 -0 -27 -1 -3 -0 -0 -0 -0 -0 -0 -0 -0 -0 -53 -274 -413 -482 -174 -91 -32 -55 -11 -17 -23 -41 -26 -22 -9 -3 -6 -14
-14 -19 -2 -1 -6 -3 -6 -21 -50 -2 -0 -0 -0 -0 -0 -1 -0 -1 -0 -0 -0 -0 -0 -0 -0 -0 -24 -0 -345 -366 -268 -130 -31 -42 -28 -33 -84 -42 -18 -18 -1 -0 -14 -6
-2 -1 -2 -1 -2 -13 -1 -74 -0 -0 -0 -0 -2 -0 -0 -1 -0 -0 -0 -3 -0 -0 -0 -0 -0 -0 -0 -0 -278 -275 -225 -170 -39 -13 -14 -30 -77 -5 -14 -3 -3 -8 -5 -5
-36 -4 -4 -3 -1 -7 -0 -1 -0 -7 -1 -4 -0 -0 -0 -0 -0 -0 -4 -3 -1 -0 -0 -0 -0 -0 -0 -0 -0 -307 -177 -145 -49 -9 -5 -20 -17 -8 -8 -5 -10 -41 -44 -28
-0 -5 -45 -74 -32 -0 -5 -6 -39 -18 -0 -0 -0 -0 -0 -0 -0 -3 -0 -0 -8 -8 -0 -0 -0 -0 -0 -0 -242 -235 -145 -61 -7 -4 -6 -5 -6 -6 -17 -13 -24 -20 -8 -6
-2 -8 -0 -57 -95 -39 -1 -14 -1 -73 -0 -10 -34 -2 -5 -0 -0 -11 -0 -21 -8 -8 -1 -5 -0 -0 -0 -0 -101 -90 -20 -31 -24 -17 -12 -7 -8 -5 -111 -138 -119 -89 -67 -61
-25 -0 -10 -62 -5 -49 -0 -1 -44 -19 -0 -0 -4 -12 -48 -162 -0 -8 -3 -6 -8 -10 -20 -27 -19 -13 -13 -68 -68 -32 -41 -42 -24 -20 -92 -93 -115 -181 -188 -169 -111 -85 -47 -44
-0 -0 -0 -11 -0 -9 -8 -3 -3 -0 -12 -0 -15 -4 -107 -168 -20 -11 -8 -5 -9 -23 -56 -69 -39 -92 -65 -54 -34 -50 -73 -89 -63 -117 -124 -132 -172 -208 -301 -348 -381 -16 -0 -0
-0 -0 -0 -7 -6 -40 -3 -18 -0 -44 -83 -15 -4 -1 -3 -42 -71 -43 -19 -34 -31 -38 -79 -51 -41 -55 -97 -84 -80 -73 -28 -43 -102 -171 -240 -262 -309 -0 -0 -0 -0 -0 -0 -0
-0 -0 -0 -0 -0 -0 -0 -0 -0 -18 -2 -15 -7 -25 -0 -50 -5 -2 -7 -23 -31 -48 -17 -2 -10 -29 -48 -33 -54 -55 -48 -100 -165 -213 -225 -0 -0 -0 -0 -0 -0 -0 -0 -0
-1 -0 -0 -0 -0 -0 -0 -0 -0 -3 -8 -3 -130 -60 -0 -37 -3 -2 -12 -10 -7 -11 -8 -0 -0 -2 -98 -67 -29 -29 -71 -134 -51 -0 -0 -0 -0 -0 -0 -0 -0 -0 -0 -0
-2 -0 -0 -0 -0 -0 -0 -0 -0 -0 -52 -2 -0 -0 -13 -24 -37 -1 -1 -1 -6 -15 -0 -13 -21 -56 -34 -31 -53 -0 -0 -1 -0 -0 -0 -0 -0 -0 -0 -0 -0 -0 -0 -0
-0 -0 -0 -0 -0 -0 -0 -0 -0 -27 -29 -0 -2 -45 -98 -0 -11 -0 -1 -5 -11 -132 -104 -54 -89 -123 -0 -0 -0 -1 -3 -0 -0 -0 -0 -0 -0 -0 -0 -0 -0 -0 -0 -0
-0 -0 -0 -0 -0 -0 -95 -63 -125 -37 -2 -2 -45 -141 -16 -0 -4 -0 -1 -71 -0 -10 -9 -2 -0 -0 -0 -0 -11 -9 -0 -0 -0 -0 -0 -0 -0 -0 -0 -0 -0 -0 -0 -0
-2 -0 -0 -0 -0 -8 -4 -18 -11 -17 -0 -0 -28 -27 -0 -0 -2 -0 -73 -0 -0 -0 -0 -0 -0 -0 -0 -0 -0 -0 -0 -0 -0 -0 -0 -0 -0 -0 -0 -0 -0 -0 -0 -1
-0 -0 -0 -0 -0 -0 -0 -0 -0 -2 -7 -50 -20 -0 -24 -87 -78 -0 -0 -0 -0 -0 -0 -0 -0 -0 -0 -0 -0 -0 -0 -0 -0 -0 -0 -0 -0 -0 -0 -0 -0 -1 -3 -0
-0 -0 -0 -0 -0 -1 -0 -0 -37 -3 -0 -11 -3 -18 -1 -33 -152 -0 -0 -0 -0 -0 -0 -0 -0 -0 -0 -0 -0 -0 -0 -0 -0 -0 -0 -0 -0 -0 -0 -1 -1 -0 -0 -0
-2 -0 -0 -0 -0 -0 -0 -0 -16 -0 -15 -8 -9 -28 -0 -50 -0 -0 -0 -0 -0 -0 -0 -0 -0 -0 -0 -0 -0 -0 -0 -0 -0 -0 -0 -0 -0 -0 -0 -0 -0 -0 -0 -0
-0 -0 -0 -0 -0 -0 -0 -0 -0 -8 -17 -33 -36 -5 -0 -0 -0 -0 -0 -0 -0 -0 -0 -0 -0 -0 -0 -0 -0 -0 -0 -0 -0 -0 -0 -0 -0 -0 -0 -0 -0 -0 -0 -0
-0 -0 -0 -0 -0 -0 -0 -0 -0 -0 -0 -0 -0 -0 -0 -0 -0 -0 -0 -0 -0 -0 -0 -0 -0 -0 -0 -0 -0 -0 -0 -0 -0 -0 -0 -0 -0 -0 -1 -0 -0 -0 -0 -1
-0 -0 -0 -0 -0 -0 -0 -0 -0 -0 -0 -0 -0 -0 -0 -0 -0 -0 -0 -0 -0 -17 -8 -0 -0 -0 -0 -0 -0 -0 -0 -0 -0 -0 -1 -1 -0 -0 -0 -0 -0 -0 -0 -0
-0 -0 -0 -0 -0 -0 -0 -0 -0 -0 -0 -0 -0 -0 -0 -0 -0 -0 -0 -0 -0 -8 -4 -2 -0 -0 -0 -0 -0 -0 -0 -0 -1 -0 -0 -0 -1 -0 -0 -0 -0 -0 -0 -0
Wind_Speed
18 16 22 23 24 27 26 25 28 27 26 29 25 30 25 23 21 16 22 24 26 22 18 17 18 14 12 6 9 14 14 12 13 11 11 10 10 8 8 6 7 7 10 9
18 24 24 21 24 26 27 27 29 26 26 24 24 29 25 25 25 22 19 15 13 17 19 20 19 13 15 14 11 6 13 14 13 10 10 8 8 8 7 7 4 6 8 7
23 25 25 26 24 25 26 26 25 26 25 28 21 24 24 19 23 20 22 20 16 14 16 20 18 19 15 17 15 12 17 16 14 14 8 6 6 5 8 6 6 5 8 6
22 24 27 26 22 26 24 23 26 26 24 20 22 16 21 19 17 19 23 24 20 20 18 15 18 17 17 18 14 10 5 16 15 12 11 9 6 4 1 5 4 5 7 6
19 29 21 22 26 24 21 19 22 25 23 24 27 15 18 20 23 22 22 20 22 23 19 17 13 13 18 17 15 14 13 9 12 13 6 7 6 2 3 3 6 5 4 6
27 26 24 24 22 24 21 16 29 23 18 19 23 23 16 23 20 24 23 23 22 19 21 21 16 11 14 18 17 14 12 9 11 13 9 12 11 8 7 6 6 5 4 3
22 28 27 25 29 27 19 10 13 14 16 16 22 26 18 23 24 21 21 27 26 22 20 20 21 16 11 18 19 16 16 15 12 13 10 11 10 5 12 8 6 8 6 3
16 22 30 22 20 22 22 19 11 13 15 20 25 25 22 26 26 24 14 23 24 24 21 21 21 19 18 15 17 19 18 17 16 15 13 10 9 5 7 7 5 4 5 5
10 18 16 16 19 18 26 8 10 17 23 16 14 27 28 23 29 28 14 8 20 18 20 21 20 17 17 13 15 19 17 15 15 14 13 11 9 8 9 11 10 8 9 7
7 9 12 20 9 22 21 5 16 15 21 9 14 21 19 25 27 25 19 10 7 11 11 12 19 16 17 16 17 20 18 17 13 11 11 10 13 12 13 12 12 10 10 8
5 6 6 5 6 20 18 11 3 6 19 16 9 8 13 23 17 22 16 15 11 10 9 7 12 12 15 18 21 20 18 18 15 14 15 15 14 14 13 12 10 8 8 8
4 6 8 16 13 22 13 20 20 5 14 17 6 4 20 21 10 15 10 12 11 16 13 12 10 19 22 22 21 18 18 19 16 15 15 15 14 14 14 13 11 10 9 8
2 3 8 11 11 3 5 13 16 11 4 21 12 9 11 16 14 11 16 13 12 14 14 10 15 17 21 20 20 19 18 18 16 16 16 16 16 15 14 12 10 9 9 8
6 3 7 11 13 10 8 20 13 13 9 15 14 19 4 10 13 6 9 11 11 14 13 12 14 17 19 19 18 18 16 16 16 17 17 17 15 14 13 12 11 10 9 7
1 4 12 17 19 21 22 23 20 17 16 16 15 14 10 10 8 7 5 9 12 14 16 15 16 17 18 18 16 16 16 17 18 17 16 16 15 14 13 12 10 9 8 7
3 4 14 19 19 19 25 24 22 19 18 14 12 6 2 5 6 3 8 9 11 12 17 17 17 18 18 15 15 17 18 17 17 16 15 15 15 13 11 11 9 8 9 8
15 8 6 9 10 21 11 25 20 18 20 18 19 13 9 11 10 6 12 9 16 17 8 15 18 18 15 16 17 17 16 16 15 15 15 14 13 12 10 10 11 8 8 7
16 8 3 9 10 6 12 13 17 17 19 12 20 13 11 13 9 6 12 17 19 25 16 15 18 17 17 17 17 16 13 14 14 14 14 13 13 12 10 11 9 7 6 5
10 6 3 4 7 8 16 16 9 7 14 14 22 17 16 14 18 12 12 17 16 18 17 16 17 17 18 17 16 15 14 15 15 14 12 12 11 10 10 9 7 6 4 4
6 7 4 4 6 7 9 18 20 12 7 27 27 16 19 20 13 4 13 16 18 15 16 16 18 17 16 15 13 14 15 14 13 12 11 10 10 9 10 7 6 5 7 8
3 3 4 5 6 3 15 25 19 4 4 9 26 29 25 14 12 15 17 17 16 15 17 16 16 15 13 14 14 15 13 12 11 9 9 10 7 9 8 8 8 6 7 6
3 3 1 3 3 3 20 14 8 10 11 7 17 21 17 26 24 17 18 17 16 16 15 13 11 11 11 12 13 12 10 9 8 8 9 7 6 8 9 7 7 6 4 5
2 4 2 5 4 10 9 10 14 13 14 8 5 20 25 26 22 20 17 18 16 13 10 9 8 9 8 12 10 10 9 7 5 5 6 5 11 9 9 6 6 6 6 4
4 6 3 4 5 12 10 9 13 15 17 19 16 19 20 25 20 17 15 14 14 13 9 7 8 10 10 10 10 8 8 6 4 4 8 10 9 8 8 7 6 7 6 4
4 3 3 3 3 5 12 12 13 17 19 19 21 15 18 20 19 19 15 14 12 12 9 7 8 9 10 10 8 6 7 2 4 6 6 8 6 8 9 9 7 8 8 7
6 1 3 3 7 4 10 12 14 21 18 17 21 19 17 18 18 18 13 8 7 12 13 11 9 9 9 9 8 8 5 4 3 7 5 4 6 7 6 7 8 13 9 9
Wind_Direction
218 231 233 227 226 247 257 253 253 251 230 240 240 237 231 217 219 233 228 238 215 224 226 221 216 193 193 178 163 166 159 157 166 178 188 194 205 198 204 205 202 181 180 182
232 233 242 246 251 245 236 249 264 269 271 271 239 242 236 217 207 220 239 244 221 208 220 236 202 195 182 175 170 166 169 166 172 181 185 204 189 202 201 195 177 136 139 141
242 239 238 236 244 251 251 248 246 250 260 268 265 262 242 241 210 212 206 237 217 218 237 219 215 193 174 178 167 181 174 176 178 183 175 188 205 210 191 173 137 125 134 142
247 242 244 254 246 237 239 250 257 253 259 251 249 258 248 228 245 238 211 211 208 207 228 231 216 191 183 169 157 146 165 175 182 178 185 191 184 174 184 124 95 136 145 161
264 289 298 265 242 269 291 268 241 262 244 257 256 253 251 222 224 234 240 226 216 199 215 237 236 187 180 159 159 164 175 186 182 181 199 164 150 158 121 133 150 172 187 186
262 277 267 259 257 273 277 290 300 232 249 243 245 250 227 255 229 220 217 222 222 209 201 220 232 216 182 166 167 165 167 186 183 179 190 157 164 173 172 172 172 168 169 179
283 271 251 251 259 258 240 234 242 231 224 241 234 244 243 238 247 245 244 210 208 203 211 202 217 216 200 185 168 166 166 180 189 171 169 153 165 204 144 153 165 166 167 154
220 258 250 258 233 249 270 246 244 211 225 237 222 235 229 231 254 249 275 219 191 197 201 200 209 201 204 184 169 170 165 174 175 162 151 145 153 133 135 164 118 75 87 114
295 277 330 312 320 242 231 200 249 275 240 239 240 225 232 230 220 238 243 288 184 192 200 196 204 193 189 180 162 156 159 163 154 156 148 151 142 135 106 92 92 81 89 90
23 297 284 261 287 262 252 319 205 219 252 192 261 252 222 214 210 219 210 211 202 181 189 196 196 191 182 184 143 150 128 122 127 125 122 114 110 106 94 88 92 94 99 102
341 259 292 55 249 245 241 207 145 300 253 232 241 271 336 316 193 194 183 179 195 155 71 340 240 201 167 131 111 118 118 107 106 106 108 110 107 103 101 101 99 93 99 105
129 278 275 276 191 238 308 218 206 180 249 249 190 256 293 323 45 160 145 148 136 99 79 37 75 88 92 97 101 102 106 109 113 115 114 112 110 106 98 94 89 81 77 71
331 250 312 311 172 144 323 245 244 220 244 267 284 209 164 316 46 41 103 110 110 102 101 101 101 100 99 102 105 112 113 116 120 120 114 108 102 102 100 98 94 91 83 71
275 251 273 284 308 285 304 297 295 222 214 241 252 286 201 165 119 191 127 126 143 132 128 121 121 109 114 111 114 108 122 127 125 114 110 107 106 102 95 89 82 75 63 61
153 288 302 296 298 291 278 276 279 269 199 242 268 270 274 18 59 117 158 159 150 149 144 143 123 112 114 113 116 131 128 117 111 110 110 109 104 97 92 88 84 77 63 47
205 290 311 295 279 278 260 257 253 257 263 202 249 251 271 131 58 192 145 132 138 134 132 114 119 117 114 118 124 116 108 108 112 116 114 106 103 103 102 97 86 70 60 45
292 288 303 263 344 329 259 234 222 231 233 226 202 206 85 157 137 175 103 102 88 60 106 135 112 110 114 112 104 103 109 110 115 112 108 106 104 98 91 82 71 58 57 45
248 249 228 294 321 239 253 184 212 210 230 202 116 141 153 141 117 121 110 101 99 104 97 78 95 100 96 96 94 101 110 107 101 93 89 85 82 75 69 67 61 50 51 45
213 211 263 274 278 272 40 27 357 278 214 213 128 140 138 117 85 44 87 74 80 83 89 86 89 88 84 85 84 92 88 86 84 80 76 75 75 75 68 63 60 54 58 66
155 186 187 283 279 31 21 341 333 316 219 122 138 143 129 141 115 94 85 89 78 76 78 81 82 83 86 88 95 93 83 79 77 78 77 68 65 71 72 65 75 61 55 58
144 222 223 267 278 58 353 330 309 212 51 83 147 150 155 141 111 122 102 89 87 87 90 85 82 83 85 76 75 75 78 70 69 61 71 69 59 96 86 72 69 62 74 76
218 248 268 245 306 9 344 338 14 308 303 228 144 150 129 117 116 120 112 105 101 95 90 84 87 89 93 94 90 79 66 58 58 60 71 77 80 60 81 79 85 70 59 86
46 15 28 21 14 307 336 336 338 15 57 84 57 112 118 118 121 124 122 119 112 97 85 90 100 87 76 65 71 75 48 53 61 88 82 81 71 75 80 76 67 74 51 52
39 23 77 211 340 347 7 7 25 35 55 75 79 98 113 111 111 113 116 122 119 116 109 111 95 88 83 89 87 83 60 13 28 66 67 67 68 79 60 60 57 52 29 30
343 18 63 73 317 322 43 43 44 61 58 69 69 77 100 111 113 110 108 113 111 119 131 138 133 119 112 96 77 74 77 347 108 92 74 98 101 95 87 65 41 81 50 31
353 250 35 75 308 37 62 57 57 68 69 69 84 81 76 87 98 103 97 89 134 146 151 130 118 114 105 103 105 98 71 41 58 110 102 55 112 109 105 111 92 59 71 59